Laconia, NH

4:38 AM EST on November 18, 2019 (GMT -0500)
Laconia Municipal

Weather History for KLCI - September, 2019

Change the Weather History Date:

Monday, September 16, 2019

  Actual Average Record
Temperature  
Mean Temperature 58 °F -  
Max Temperature 68 °F 70 °F 87 °F (1993)
Min Temperature 51 °F 48 °F 38 °F (1984)
Degree Days  
Heating Degree Days 6    
Growing Degree Days 8 (Base 50)    
Moisture  
Dew Point 47 °F    
Average Humidity 68    
Maximum Humidity 92    
Minimum Humidity 45    
Precipitation  
Precipitation 0.00 in - - ()
Sea Level Pressure  
Sea Level Pressure 30.05 in    
Wind  
Wind Speed 6 mph ()    
Max Wind Speed 18 mph    
Max Gust Speed 24 mph    
Visibility 10.0 miles    
Events      
Averages and records for this station are not official NWS values.
T = Trace of Precipitation, MM = Missing Value Source: Averaged Metar Reports

Daily Weather History Graph

Daily Weather History Graph

Search for Another Location

Airport or City:

Astronomy

Sep. 16, 2019 Rise Set
Actual Time 6:25 AM EDT 6:54 PM EDT
Civil Twilight 5:57 AM EDT 7:23 PM EDT
Nautical Twilight 5:23 AM EDT 7:57 PM EDT
Astronomical Twilight 4:48 AM EDT 8:31 PM EDT
Moon 8:24 PM EDT (9/16) 8:32 AM EDT (9/16)
Length of Visible Light 13h 26m
Length of Day
12h 28m
Waning Gibbous, 94% of the Moon is Illuminated
Sep 16
Waning Gibbous
Sep 21
Last Quarter
Sep 28
New
Oct 5
First Quarter
Oct 13
Full

Hourly Weather History & Observations

Time (EDT) Temp. Dew Point Humidity Pressure Visibility Wind Dir Wind Speed Gust Speed Precip Events Conditions
12:56 AM 60.1 °F 53.1 °F 78% 30.05 in 10.0 mi Calm Calm - N/A   Overcast
1:56 AM 60.1 °F 51.1 °F 72% 30.06 in 10.0 mi WNW 4.6 mph - N/A   Overcast
2:56 AM 57.9 °F 46.9 °F 67% 30.05 in 10.0 mi Variable 4.6 mph - N/A   Mostly Cloudy
3:56 AM 55.9 °F 46.9 °F 72% 30.06 in 10.0 mi West 5.8 mph - N/A   Clear
4:56 AM 54.0 °F 46.9 °F 77% 30.05 in 10.0 mi West 8.1 mph - N/A   Clear
5:56 AM 54.0 °F 48.0 °F 80% 30.06 in 10.0 mi West 4.6 mph - N/A   Clear
6:56 AM 53.1 °F 46.9 °F 80% 30.07 in 10.0 mi West 9.2 mph - N/A   Clear
7:56 AM 54.0 °F 46.0 °F 75% 30.09 in 10.0 mi WSW 3.5 mph - N/A   Clear
8:56 AM 57.0 °F 46.0 °F 67% 30.09 in 10.0 mi West 5.8 mph - N/A   Clear
9:56 AM 60.1 °F 46.0 °F 60% 30.07 in 10.0 mi West 9.2 mph 19.6 mph N/A   Clear
10:56 AM 62.1 °F 45.0 °F 53% 30.05 in 10.0 mi NW 15.0 mph 24.2 mph N/A   Clear
11:56 AM 64.9 °F 45.0 °F 48% 30.04 in 10.0 mi NW 18.4 mph 24.2 mph N/A   Clear
12:56 PM 64.9 °F 46.9 °F 52% 30.03 in 10.0 mi WNW 11.5 mph 20.7 mph N/A   Partly Cloudy
1:56 PM 66.9 °F 48.0 °F 51% 30.02 in 10.0 mi NW 13.8 mph 23.0 mph N/A   Clear
2:56 PM 66.9 °F 46.9 °F 49% 30.01 in 10.0 mi West 10.4 mph 19.6 mph N/A   Partly Cloudy
3:56 PM 66.0 °F 44.1 °F 45% 30.02 in 10.0 mi WNW 11.5 mph 19.6 mph N/A   Partly Cloudy
4:56 PM 64.0 °F 46.0 °F 52% 30.02 in 10.0 mi NNW 8.1 mph - N/A   Overcast
5:56 PM 64.9 °F 46.0 °F 50% 30.04 in 10.0 mi Variable 5.8 mph - N/A   Overcast
6:56 PM 59.0 °F 50.0 °F 72% 30.06 in 10.0 mi Calm Calm - N/A   Mostly Cloudy
7:56 PM 54.0 °F 50.0 °F 86% 30.06 in 10.0 mi Calm Calm - N/A   Partly Cloudy
8:56 PM 52.0 °F 48.9 °F 89% 30.07 in 10.0 mi WSW 3.5 mph - N/A   Clear
9:56 PM 51.1 °F 48.9 °F 92% 30.07 in 10.0 mi West 3.5 mph - N/A   Clear
10:56 PM 53.1 °F 46.9 °F 80% 30.07 in 10.0 mi WSW 8.1 mph - N/A   Clear
11:56 PM 51.1 °F 48.0 °F 89% 30.07 in 10.0 mi West 4.6 mph - N/A   Clear